Buenos Aires Air Park, Argentina

1:29 AM ART on February 24, 2017 (GMT -0300)
Buenos Aires

Weather History for SABE - November, 2012

Change the Weather History Date:

Monday, November 5, 2012

  Actual Average Record
Temperature  
Mean Temperature 80 °F -  
Max Temperature 90 °F 77 °F 91 °F (2008)
Min Temperature 69 °F 62 °F 48 °F (2004)
Cooling Degree Days 14    
Growing Degree Days 30 (Base 50)    
Moisture  
Dew Point 62 °F    
Average Humidity 57    
Maximum Humidity 78    
Minimum Humidity 23    
Precipitation  
Precipitation 0.00 in 0.14 in - ()
Sea Level Pressure  
Sea Level Pressure 29.88 in    
Wind  
Wind Speed 6 mph ()    
Max Wind Speed 14 mph    
Max Gust Speed -    
Visibility 6.1 miles    
Events      
Averages and records for this station are not official NWS values.
T = Trace of Precipitation, MM = Missing Value Source: Averaged Metar Reports

Daily Weather History Graph

Daily Weather History Graph

Search for Another Location

Airport or City:

Trip Planner

Search our weather history database for the weather conditions in past years. The results will help you decide how hot, cold, wet, or windy it might be!

Date:

Astronomy

Nov. 05, 2012 Rise Set
Actual Time 5:47 AM ART 7:27 PM ART
Civil Twilight 5:20 AM ART 7:54 PM ART
Nautical Twilight 4:48 AM ART 8:26 PM ART
Astronomical Twilight 4:13 AM ART 9:01 PM ART
Moon 12:15 AM ART (11/5) 10:58 AM ART (11/5)
Length of Visible Light 14h 33m
Length of Day
13h 39m
Waning Gibbous, 64% of the Moon is Illuminated
Nov 5
Waning Gibbous
Nov 6
Last Quarter
Nov 13
New
Nov 20
First Quarter
Nov 28
Full

Hourly Weather History & Observations

Time (ART) Temp. Heat Index Dew Point Humidity Pressure Visibility Wind Dir Wind Speed Gust Speed Precip Events Conditions
12:00 AM 74 °F - 63 °F 61% 29.91 in 6 mi ENE 4.6 mph - -  
12:00 AM 73.4 °F - 62.6 °F 69% 29.89 in 6.2 mi ENE 4.6 mph - N/A   Unknown
1:00 AM 73.4 °F - 64.4 °F 73% 29.89 in - NE 6.9 mph - N/A   Clear
2:00 AM 73.4 °F - 62.6 °F 69% 29.89 in - NE 5.8 mph - N/A   Clear
3:00 AM 73 °F - 63 °F 62% 29.89 in 6 mi NE 4.6 mph - -  
3:00 AM 73.4 °F - 62.6 °F 69% 29.89 in 6.2 mi NE 4.6 mph - N/A   Unknown
4:00 AM 73.4 °F - 62.6 °F 69% 29.89 in 6.2 mi NNE 5.8 mph - N/A   Unknown
5:00 AM 71.6 °F - 62.6 °F 73% 29.89 in 6.2 mi North 8.1 mph - N/A   Unknown
6:00 AM 71 °F - 65 °F 76% 29.90 in 6 mi North 6.9 mph - -   Clear
6:00 AM 71.6 °F - 64.4 °F 78% 29.89 in - North 6.9 mph - N/A   Clear
7:00 AM 71.6 °F - 64.4 °F 78% 29.92 in - North 6.9 mph - N/A   Clear
8:00 AM 73.4 °F - 66.2 °F 78% 29.92 in - North 9.2 mph - N/A   Clear
9:00 AM 74 °F - 66 °F 71% 29.94 in 6 mi North 6.9 mph - -  
9:00 AM 73.4 °F - 66.2 °F 78% 29.92 in - North 6.9 mph - N/A   Clear
10:00 AM 75.2 °F - 68.0 °F 78% 29.92 in - North 6.9 mph - N/A   Clear
11:00 AM 78.8 °F - 71.6 °F 78% 29.89 in 6.2 mi North 5.8 mph - N/A   Partly Cloudy
12:00 PM 86 °F - 62 °F 34% 29.89 in 6 mi NW 10.4 mph - -   Scattered Clouds
12:00 PM 86.0 °F 86.1 °F 60.8 °F 43% 29.89 in 6.2 mi NW 10.4 mph - N/A   Scattered Clouds
1:00 PM 86.0 °F 85.4 °F 59.0 °F 40% 29.86 in 6.2 mi NW 10.4 mph - N/A   Scattered Clouds
2:00 PM 87.8 °F 86.5 °F 57.2 °F 35% 29.86 in 6.2 mi WNW 11.5 mph - N/A   Scattered Clouds
3:00 PM 89.6 °F 88.9 °F 59.0 °F 36% 29.86 in 6.2 mi NW 13.8 mph - N/A   Scattered Clouds
4:00 PM 89.6 °F 88.9 °F 59.0 °F 36% 29.83 in 6.2 mi WSW 11.5 mph - N/A   Scattered Clouds
5:00 PM 89.6 °F 87.3 °F 53.6 °F 29% 29.80 in - WNW 8.1 mph - N/A   Clear
6:00 PM 88 °F - 55 °F 23% 29.82 in 6 mi WNW 11.5 mph - -   Clear
6:00 PM 87.8 °F 86.1 °F 55.4 °F 33% 29.80 in - WNW 11.5 mph - N/A   Clear
7:00 PM 86.0 °F 84.5 °F 55.4 °F 35% 29.83 in - WNW 9.2 mph - N/A   Clear
8:00 PM 84.2 °F 82.8 °F 53.6 °F 35% 29.83 in - West 4.6 mph - N/A   Clear
9:00 PM 79 °F - 67 °F 59% 29.86 in 6 mi NW 6.9 mph - -  
9:00 PM 82.4 °F 81.4 °F 53.6 °F 37% 29.86 in - NW 6.9 mph - N/A   Clear
10:00 PM 78.8 °F - 68.0 °F 69% 29.86 in - NW 6.9 mph - N/A   Clear
11:00 PM 77.0 °F - 68.0 °F 74% 29.86 in - NW 4.6 mph - N/A   Clear